Clearwater, FL

6:48 AM EDT on August 27, 2016 (GMT -0400)
Saint Petersburg-Clearwater International

Weather History for KPIE - October, 2012

Change the Weather History Date:

Wednesday, October 31, 2012

  Actual Average Record
Temperature  
Mean Temperature 66 °F -  
Max Temperature 72 °F 81 °F 88 °F (1972)
Min Temperature 60 °F 67 °F 52 °F (1953)
Growing Degree Days 16 (Base 50)    
Moisture  
Dew Point 50 °F    
Average Humidity 61    
Maximum Humidity 86    
Minimum Humidity 43    
Precipitation  
Precipitation 0.00 in - - ()
Sea Level Pressure  
Sea Level Pressure 30.02 in    
Wind  
Wind Speed 8 mph (WNW)    
Max Wind Speed 14 mph    
Max Gust Speed 18 mph    
Visibility 10 miles    
Events      
Averages and records for this station are not official NWS values.
T = Trace of Precipitation, MM = Missing Value Source: NWS Daily Summary

Daily Weather History Graph

Daily Weather History Graph

Search for Another Location

Airport or City:

Trip Planner

Search our weather history database for the weather conditions in past years. The results will help you decide how hot, cold, wet, or windy it might be!

Date:

Astronomy

Oct. 31, 2012 Rise Set
Actual Time 7:41 AM EDT 6:46 PM EDT
Civil Twilight 7:17 AM EDT 7:10 PM EDT
Nautical Twilight 6:49 AM EDT 7:38 PM EDT
Astronomical Twilight 6:22 AM EDT 8:06 PM EDT
Moon 8:06 PM EDT (10/31) 9:12 AM EDT (10/31)
Length of Visible Light 11h 53m
Length of Day
11h 05m
Full, 97% of the Moon is Illuminated
Oct 31
Full
Nov 6
Last Quarter
Nov 13
New
Nov 20
First Quarter
Nov 28
Full

Hourly Weather History & Observations

Time (EDT) Temp. Dew Point Humidity Pressure Visibility Wind Dir Wind Speed Gust Speed Precip Events Conditions
12:53 AM 64.0 °F 48.9 °F 58% 29.98 in 10.0 mi WNW 10.4 mph 18.4 mph N/A   Clear
1:53 AM 64.9 °F 48.0 °F 54% 29.99 in 10.0 mi WNW 10.4 mph - N/A   Partly Cloudy
2:53 AM 64.0 °F 48.9 °F 58% 29.99 in 10.0 mi WNW 8.1 mph - N/A   Clear
3:53 AM 64.0 °F 50.0 °F 60% 29.98 in 10.0 mi NW 10.4 mph - N/A   Clear
4:53 AM 61.0 °F 50.0 °F 67% 29.99 in 10.0 mi NW 4.6 mph - N/A   Clear
5:53 AM 63.0 °F 52.0 °F 67% 30.00 in 10.0 mi North 6.9 mph - N/A   Partly Cloudy
6:53 AM 61.0 °F 50.0 °F 67% 30.01 in 10.0 mi ENE 8.1 mph - N/A   Partly Cloudy
7:53 AM 60.1 °F 48.0 °F 64% 30.03 in 10.0 mi ENE 5.8 mph - N/A   Clear
8:53 AM 61.0 °F 46.9 °F 60% 30.06 in 10.0 mi NE 6.9 mph - N/A   Mostly Cloudy
9:53 AM 63.0 °F 46.9 °F 56% 30.07 in 10.0 mi NE 5.8 mph - N/A   Mostly Cloudy
10:53 AM 64.0 °F 48.9 °F 58% 30.09 in 10.0 mi Calm Calm - N/A   Scattered Clouds
11:53 AM 66.9 °F 50.0 °F 54% 30.07 in 10.0 mi Variable 4.6 mph - N/A   Partly Cloudy
12:53 PM 71.1 °F 48.0 °F 44% 30.06 in 10.0 mi NW 9.2 mph - N/A   Clear
1:53 PM 70.0 °F 48.0 °F 46% 30.04 in 10.0 mi WNW 10.4 mph - N/A   Clear
2:53 PM 71.6 °F 48.2 °F 43% 30.01 in 10.0 mi NNW 13.8 mph - N/A   Clear
3:53 PM 71.1 °F 48.9 °F 45% 30.01 in 10.0 mi WNW 12.7 mph - N/A   Clear
4:53 PM 70.0 °F 50.0 °F 49% 30.00 in 10.0 mi NW 11.5 mph - N/A   Clear
5:53 PM 69.1 °F 51.1 °F 53% 30.01 in 10.0 mi WNW 8.1 mph - N/A   Clear
6:53 PM 66.0 °F 52.0 °F 60% 30.01 in 10.0 mi West 6.9 mph - N/A   Clear
7:53 PM 63.0 °F 53.1 °F 70% 30.02 in 10.0 mi SSW 4.6 mph - N/A   Clear
8:53 PM 60.8 °F 53.6 °F 77% 30.02 in 10.0 mi South 5.8 mph - N/A   Clear
9:53 PM 61.0 °F 54.0 °F 78% 30.04 in 10.0 mi South 4.6 mph - N/A   Clear
10:53 PM 61.0 °F 55.0 °F 81% 30.04 in 10.0 mi South 4.6 mph - N/A   Partly Cloudy
11:53 PM 60.1 °F 55.9 °F 86% 30.04 in 10.0 mi South 3.5 mph - N/A   Partly Cloudy